{"data":{"norad_id":46141,"intl_designator":"2020-057AA","name":"STARLINK-1596","alt_names":[],"object_type":"PAYLOAD","status":"ACTIVE","operator":null,"country":"US","launch_date":"2020-08-18","launch_site_code":"AFETR","launch_vehicle":null,"mission":null,"orbit_class":"UNKNOWN","rcs_meters":null,"size_class":null,"mass_kg":null,"dimensions":null,"purposes":["comms"],"wikipedia_slug":null,"has_3d_model":false,"image_url":null,"decayed_at":null,"tle_current":{"epoch":"2026-09-19T21:28:29.400672Z","epoch_age_seconds":70527,"freshness":"FRESH","line1":"1 46141U 20057AA  26262.89478473  .00101543  00000+0  60254-3 0  9991","line2":"2 46141  53.0308   3.3090 0003836   5.4116 354.6944 15.77255387337603","mean_motion":15.77255387,"eccentricity":0.0003836,"inclination_deg":53.0308,"raan_deg":3.309,"arg_perigee_deg":5.4116,"mean_anomaly_deg":354.6944,"bstar":0.00060254,"rev_number":33760,"period_min":91.297833684305,"perigee_km":335.64446982738,"apogee_km":340.79725958118,"semimajor_km":6716.3578647043,"source":"CELESTRAK","updated_at":"2026-09-20T09:00:38.466739Z"}}}